ONEWEB-0121

Last updated on Mon Jan 18 2021 00:02:03 GMT+0000 (Coordinated Universal Time)

1 47267U 20100K 21017.58334491 -.01429856 00000-0 -13752+0 0 9991 2 47267 87.3697 29.1719 0011514 162.1158 346.9282 14.96529749 1880

Satellite not in orbit